2001 KO2  

Epoch 2001 May  31.0 TT = JDT 2452060.5                 Nakano

M   9.36085              (2000.0)            P               Q

n   0.24759625     Peri.  326.55754     -0.84992528     +0.49282663

a   2.5117323      Node   244.04820     -0.42647595     -0.85120228

e   0.6060250      Incl.   11.96510     -0.30942735     -0.18048986

P   3.98           H   20.1           G   0.15           U   *

Residuals in seconds of arc 

010521 608  0.2-  0.7-    010523 649  0.2+  0.1+    010525 113  1.3+  0.6-  

010521 608  0.4+  0.8-    010523 649  0.2+  0.2+    010525 113  0.2+  0.2+  

010521 608  0.1+  0.8-    010524 046  0.6+  0.3+    010525 113  0.6+  0.2-  

010522 046  0.9-  1.0+    010524 046  0.6-  0.4+    010525 113  0.1+  0.3-  

010522 046  0.4+  0.2-    010524 046  0.1-  0.4+    010526 118  0.6+  0.5-  

010522 046  0.8-  0.6+    010524 046  0.0   0.0     010526 118  0.2-  0.4+  

010522 046  1.1-  0.6+    010524 046  0.0   0.1+    010526 118  0.7+  0.0   

010522 046  0.3+  0.3+    010525 118  0.2+  0.0     010526 704  0.8-  0.2-  

010522 649  0.4+  0.4+    010525 118  0.0   0.1+    010526 704  0.3-  0.0   

010522 649  0.2+  0.2+    010525 118  0.2+  0.0     010526 704  0.1-  1.5+  

010522 649  0.3+  0.5+    010525 360  0.3-  0.2-    010527 360  0.2-  0.0   

010522 649  0.3+  0.1+    010525 360  0.3-  0.2-    010527 360  0.3-  0.3-  

010522 608  0.1+  0.9-    010525 360  0.1+  0.2-    010527 360  0.3-  0.1-  

010522 608  0.0   0.7-    010525 402  0.0   0.3-    010528 402  0.2-  0.2+  

010522 608  0.2-  0.5-    010525 402  0.2-  0.3-    010528 402  0.2-  0.1+  

010523 649  0.3-  0.2+    010525 402  0.0   0.2-    010528 402  0.2-  0.0   

  

NAKANO

         **** Don't distribute anyone except personal use only ****

                (C) Copyright 2001 OAA/ComputingSection

write mail from CFAD0::NAKANO on 2001-05-30 05:04:24(JST).

 

2001 KO2  

Epoch 2001 May  31.0 TT = JDT 2452060.5                 Nakano

M   9.07220              (2000.0)            P               Q

n   0.24031286     Peri.  326.55160     -0.84939466     +0.49310143

a   2.5622296      Node   244.09186     -0.42667269     -0.85136983

e   0.6138250      Incl.   12.07029     -0.31061091     -0.17894243

P   4.10           H   20.1           G   0.15           U   *

  

NAKANO

         **** Don't distribute anyone except personal use only ****

                (C) Copyright 2001 OAA/ComputingSection

write mail from CFAD0::NAKANO on 2001-05-27 04:52:33(JST).

 



–ß‚è‚Ü‚·B